Reflectivity
-20 -20 -20 -20 -20 -20 -20 -20 4 2 -20 -15 14 -18 -19 -20 -20 -20 -20 -20 -20 -20 -20 -20 -20 -14 -20 -20 -20 -20 -20 -20 -20 -20 -20 -20 -20 -20 -20 -20 -20 -20 -20 -20
-20 -20 -20 -20 -20 -20 -20 -20 -20 3 -12 -0 1 -20 -20 -20 -20 -20 -20 -20 -20 -20 -20 -20 -20 -20 -20 -20 -20 -20 -20 -14 -20 -20 -9 -20 -20 -20 -20 -20 -20 -20 -20 -20
-20 -20 -20 -20 -20 -20 -20 -20 2 -5 14 -20 -2 -20 -20 -20 -20 -20 -20 -20 -20 -20 -20 -20 -20 -10 -20 -20 -20 -20 -20 -20 -20 -20 -13 -20 -20 -20 -1 -20 -20 -20 -20 -20
-20 -20 -20 -20 -20 -20 -20 -20 -20 -20 -20 -20 -20 -20 -20 -20 -20 -20 -20 -20 -20 -20 -3 -5 -18 -20 -13 -3 -20 -8 0 -15 -20 -20 -20 -20 -20 -20 -14 -19 -20 -20 -20 -20
-20 -20 -20 -20 -20 -20 -20 -18 -20 -20 -20 -20 -20 -20 -20 -20 -20 -20 -20 -20 -20 -20 0 9 13 17 5 -8 -19 -20 -20 -20 -20 -20 -20 -20 -20 -20 -20 -20 -20 -20 -20 -20
-14 -20 -20 -20 -20 -20 -20 -20 -20 -20 -20 -10 -20 -20 -20 -20 -20 -20 -20 -20 -20 -20 -20 -19 -12 -20 -20 -20 -20 -20 -20 -20 -20 -20 -20 -20 -20 -20 -20 -20 -20 -20 -20 -20
-3 -20 -20 -15 -20 -20 -20 -20 -20 -20 -20 -20 -14 -20 -20 -20 -20 -20 -20 -20 -20 -20 -20 -20 -20 -20 -20 -20 -20 -20 -20 -20 -20 -20 -20 -20 -20 -20 -20 -20 -20 -20 -20 -20
10 -17 -20 -8 -20 -20 -20 -20 -20 -20 -20 -20 -20 -20 -20 -20 -20 -20 -19 -20 -20 -20 -20 -13 20 -16 -20 -20 -20 -20 -20 -20 -20 -20 -19 -20 -20 -20 -20 -20 -20 -20 -20 -20
15 -6 -20 -20 -20 -20 -20 -20 -20 -20 -20 -20 -20 -17 -20 -20 -20 -20 -20 -5 10 -20 -20 -20 -18 -20 -20 -20 -20 -20 -20 -20 -15 -20 -7 -13 -20 -20 -20 -20 -20 -20 -20 -20
-3 -20 -20 -20 -20 -20 -20 -20 -20 -20 -20 -20 -20 -20 -7 -20 -20 -20 -20 -20 -20 -20 -13 25 11 -20 -20 -20 -18 -20 -20 -20 -2 2 -7 -17 -20 -20 -20 -20 -20 -20 -20 -20
6 -8 -19 -20 -20 -20 -20 -20 -20 -20 -20 -20 -20 -20 -20 -10 -19 -2 -20 1 -20 -7 13 -4 -10 -20 -20 -20 -14 -20 -20 -20 -15 -8 8 1 -20 -20 -20 -20 -20 -20 -20 -20
6 -19 -20 -20 -20 -20 -20 -14 -20 -20 -20 -20 -20 -20 -20 -20 -20 4 -13 -20 -20 -20 -20 -20 -20 -20 -20 -20 -20 -20 -20 -20 -20 -20 -20 -20 -20 -20 -20 -20 -20 -20 -20 -20
21 16 6 -20 -20 -20 -20 -14 -13 -20 -14 -18 -20 -19 -20 -20 -20 -20 -20 -20 -17 -20 -20 -20 -13 -20 -20 -20 -20 -20 -20 -20 -20 -20 -20 -20 -20 -20 -20 -20 -20 -20 -20 -20
-19 -16 -19 -20 -20 -20 -20 -20 -13 -14 -20 -4 -5 -20 -20 -20 -6 8 -20 -20 -3 11 -17 11 -10 -20 -20 -20 -20 -20 -20 -20 -20 -20 -20 -20 -20 -20 -20 -20 -20 -20 -20 -20
-20 -20 -20 -20 19 -3 -20 -4 -20 -19 -17 -18 -20 -20 -16 -20 -20 16 -15 19 15 20 19 -4 -7 -20 -20 -20 -20 -20 -20 -20 -20 -20 -20 -20 -20 -20 -20 -20 -20 -20 -20 -20
-20 -20 -20 -20 -20 4 11 -13 -20 17 -20 -20 -20 -20 -20 -20 -13 -20 -13 5 -14 22 28 15 19 7 -20 -20 -20 -20 -20 -20 -20 -20 -17 -20 -20 -20 -20 -20 -20 -20 -20 -20
-9 1 -20 -20 -20 -14 -9 -20 -20 -20 -20 -20 -14 -20 -20 -3 -20 -20 -20 -20 -20 -19 -15 -8 -20 -20 -20 -20 -20 -20 -20 -20 -20 -19 -19 -20 -20 -20 -20 -20 -20 -20 -20 -20
-0 0 2 16 20 -20 18 -20 -20 -20 -20 -16 14 -4 -20 -20 -20 -20 -20 -16 -18 -18 -20 -20 -20 -20 -20 -20 -20 -20 -20 -20 -20 6 -10 -19 -20 -20 -20 -20 -20 -20 -20 -20
21 17 15 24 24 16 -19 13 -20 -20 -6 -20 -17 8 -20 -20 -20 -3 -20 -20 -18 -20 -20 -20 -20 -20 -20 -20 -20 -20 -20 -19 -0 -20 -20 -20 -20 -20 -20 -20 -20 -20 -20 -20
27 36 33 27 24 -19 -8 25 24 30 -8 -20 -20 -20 -20 -15 9 9 27 32 21 8 -19 -15 -18 -20 -20 -20 -20 -20 -20 -20 -20 -20 -20 -20 -20 -20 -20 -20 -20 -20 -20 -20
28 33 31 11 2 -6 11 12 -12 10 12 17 -18 -20 -20 -20 -17 -6 11 18 33 5 -20 -20 -20 -20 -20 -20 -20 -20 -20 -20 -20 -20 -20 -20 -20 -20 -20 -20 -20 -20 -20 -20
27 31 21 17 28 26 24 14 -5 -8 -19 -20 -20 -20 -20 -20 -20 -16 -15 -4 6 -15 -20 -20 -20 -20 -20 -20 -20 -20 -20 -20 -20 -20 -20 -20 -20 -20 -20 -20 -20 -20 -20 -20
22 21 23 28 22 22 5 16 8 -20 -20 -20 -20 1 10 21 16 -20 -20 -15 13 -20 -20 -18 -20 -20 -20 -20 -20 -20 -20 -20 -20 -20 -20 -20 -20 -20 -20 -20 -20 -20 -20 -20
25 25 23 7 14 -6 -20 -20 -20 -20 -20 -20 -20 -20 -20 7 -20 -20 12 -20 -19 -20 -20 -20 -20 -20 -20 -20 -20 -20 -20 -20 -20 -20 -20 -20 -20 -20 -20 -20 -20 -20 -20 -20
18 12 23 -20 -20 -20 -20 -20 -20 -20 -20 -20 -20 -10 -20 -7 -6 -1 -8 -6 -13 -20 -20 -20 -20 -20 -20 -20 -20 -20 -20 -20 -20 -20 -20 -20 -20 -20 -20 -20 -20 -20 -20 -20
13 -7 -20 -20 -20 -20 -8 -20 -20 -20 -20 -19 4 -10 14 5 -10 -17 -20 -20 -20 -20 -15 -20 -20 -20 -20 -20 -20 -20 -20 -20 -20 -20 -20 -20 -20 -20 -20 -20 -20 -20 -20 -20
5 -18 -20 -20 -20 -20 -20 -20 -20 -20 28 -9 -3 -20 -20 -20 -9 1 -20 -20 -20 -20 -20 -20 -20 -20 -20 -20 -20 -20 -20 -20 -20 -20 -20 -20 -20 -20 -20 -20 -20 -20 -20 -20
Wind_Speed
22 21 20 19 18 14 9 3 4 8 10 5 3 5 8 8 7 10 7 2 4 4 5 5 7 3 3 4 6 5 6 2 1 2 3 7 4 3 4 6 1 2 6 7
24 23 22 20 18 17 5 4 4 2 3 9 6 5 7 8 6 7 7 4 4 3 1 1 7 6 3 5 4 3 5 3 3 7 5 6 4 4 4 4 4 4 6 7
26 25 23 21 23 23 1 4 4 0 2 3 10 7 8 8 9 5 7 4 5 1 2 3 3 3 2 6 4 1 2 3 3 6 4 4 2 5 4 2 4 4 6 7
25 24 23 22 21 13 1 1 5 6 6 5 7 6 7 12 8 7 9 5 7 8 5 3 4 3 5 7 4 4 1 2 3 3 5 3 5 9 6 4 7 6 7 10
27 27 28 25 19 15 1 2 3 2 5 10 13 11 8 12 16 10 7 7 10 13 7 8 9 4 2 7 3 2 1 3 4 5 5 5 11 13 11 12 14 11 9 7
28 26 24 19 16 9 3 3 4 3 6 8 10 13 13 13 10 8 8 10 5 3 5 1 7 7 1 3 6 6 3 3 3 4 4 7 8 8 12 10 10 7 7 5
29 26 24 20 22 12 2 2 2 2 2 5 9 9 16 14 13 16 12 8 9 6 7 6 6 2 4 5 5 3 4 3 3 4 3 3 9 7 8 4 2 5 13 8
28 25 23 19 20 18 2 3 1 1 1 3 8 10 9 14 11 12 7 4 1 6 6 5 4 1 3 6 7 6 6 5 1 3 3 8 13 8 4 5 3 5 15 13
26 24 21 18 17 15 2 2 2 2 2 4 5 6 9 6 4 2 7 5 4 7 4 4 4 6 5 6 3 2 6 5 7 2 3 7 8 3 6 4 1 4 9 9
25 23 21 19 17 14 4 1 2 1 1 4 7 5 4 3 4 4 5 6 2 5 4 4 5 5 3 5 8 5 3 3 8 4 4 8 12 4 5 5 7 6 7 8
23 21 19 18 16 15 6 2 3 4 1 4 8 6 7 6 5 1 5 6 5 3 3 4 4 4 6 5 6 9 8 7 4 3 3 12 10 5 9 7 5 7 6 7
21 20 19 18 16 15 7 2 3 4 3 2 3 6 7 6 1 2 5 6 5 6 4 2 3 2 2 5 3 5 5 8 8 10 9 7 5 4 4 7 7 5 7 7
20 19 18 18 18 17 8 3 4 4 3 5 3 1 5 7 4 4 3 5 4 4 2 4 4 4 5 4 6 5 5 10 5 5 7 8 11 4 6 6 7 6 7 8
20 20 18 18 18 17 8 3 2 5 4 3 5 2 3 3 4 6 2 3 4 4 1 1 2 3 1 3 4 4 6 5 6 4 6 5 1 6 4 2 8 9 8 7
20 19 19 18 18 17 6 2 2 3 5 3 4 6 2 5 1 4 3 3 2 3 3 2 2 2 4 3 2 2 2 3 4 6 6 5 5 2 1 8 8 10 9 8
21 19 18 17 16 16 5 1 2 2 2 5 3 4 2 3 2 4 5 3 3 4 3 3 2 1 3 1 3 5 5 4 1 4 2 3 7 8 6 9 11 10 10 8
21 20 19 19 19 9 5 6 4 11 5 4 1 4 2 2 2 1 1 1 0 2 2 2 3 2 3 2 5 5 8 8 11 12 3 4 4 6 6 7 11 13 9 8
21 20 18 18 18 8 4 2 10 8 6 4 1 3 4 1 1 1 2 2 1 2 3 2 2 2 2 5 7 10 13 14 17 18 11 7 7 6 6 4 12 12 10 8
18 17 17 7 3 3 3 12 10 3 5 6 4 2 4 2 1 2 2 2 1 2 2 3 4 3 9 7 7 8 8 12 13 11 11 11 9 10 9 10 11 13 9 10
22 7 3 3 4 15 12 5 2 2 2 1 4 3 3 3 2 2 2 1 2 2 5 4 5 12 12 10 7 10 11 12 10 10 12 7 7 8 9 8 15 14 13 12
5 3 2 3 17 4 2 4 4 3 3 4 5 10 6 3 3 2 3 2 2 3 6 6 5 6 8 12 17 22 22 19 15 12 10 9 9 9 7 5 11 12 14 14
9 6 4 5 3 3 6 6 5 5 7 6 7 7 5 3 4 3 3 4 3 6 3 3 6 3 6 11 15 12 13 15 16 16 16 15 12 13 10 10 13 14 14 14
3 3 4 3 4 7 7 9 7 5 5 7 8 8 6 3 3 3 4 4 5 1 0 6 6 4 6 7 6 6 7 8 9 10 8 7 7 7 9 11 11 15 15 13
3 5 9 7 5 5 5 10 9 8 5 11 14 8 5 4 4 4 6 6 3 4 5 6 3 7 11 7 6 5 9 9 9 7 5 8 9 8 8 14 16 17 15 13
3 3 6 8 5 4 9 10 9 3 8 9 10 4 5 3 3 5 4 5 7 7 5 6 6 9 7 7 7 9 9 6 3 2 3 3 1 9 8 8 12 14 15 14
3 6 4 3 7 2 4 5 8 5 9 9 5 5 3 4 4 5 9 6 7 5 5 5 4 6 8 8 8 6 5 5 4 5 5 6 7 10 11 11 12 12 15 14
6 6 4 2 5 12 8 11 6 8 8 9 5 8 10 4 4 6 6 6 9 4 5 3 4 6 8 6 6 6 5 6 7 6 6 6 8 11 12 13 8 10 10 11
Wind_Direction
165 166 166 167 171 149 131 186 186 158 140 157 196 189 192 204 215 226 264 293 272 255 0 312 15 97 89 338 340 344 342 110 91 338 73 45 354 337 152 116 246 135 144 275
164 167 168 170 153 167 146 178 126 222 136 190 197 207 234 196 187 201 195 225 223 339 34 312 4 55 286 297 66 46 334 337 37 350 360 24 34 311 19 120 78 176 125 259
165 168 168 165 174 192 96 141 123 233 179 289 198 194 212 221 191 232 160 202 246 113 2 356 329 119 43 354 72 220 25 315 180 182 228 174 268 266 258 135 115 218 210 249
167 167 167 175 187 175 133 275 183 174 193 213 233 229 214 223 204 198 165 228 207 192 194 203 276 236 261 356 318 337 131 242 310 333 73 307 286 275 291 272 242 195 241 224
168 169 171 183 163 141 219 212 128 131 162 179 210 222 232 205 212 174 208 219 201 219 188 181 186 275 117 219 262 308 348 248 358 311 305 285 275 260 243 247 252 252 251 260
169 171 175 178 151 160 172 223 295 124 186 172 187 216 231 222 186 229 204 201 210 271 303 239 151 150 259 250 181 196 140 118 72 272 0 352 305 230 227 239 245 207 231 157
169 172 176 163 164 187 147 247 97 80 255 168 206 209 222 234 215 200 204 199 198 199 104 47 70 103 267 271 249 157 160 132 101 226 23 262 240 294 270 242 314 114 103 107
165 169 173 164 168 194 138 344 56 108 201 192 234 223 207 238 255 214 191 181 142 93 74 72 33 22 300 248 230 237 181 131 101 150 227 294 307 292 266 178 32 89 123 128
162 166 168 160 170 187 154 341 18 39 99 271 308 284 206 204 205 239 142 93 92 79 101 106 159 199 178 217 174 224 79 135 134 138 207 229 240 42 53 70 166 113 103 114
160 163 161 159 169 161 139 244 112 76 93 337 15 13 319 326 178 173 114 125 104 128 110 180 162 213 231 223 149 172 94 33 181 177 215 278 276 39 341 122 226 138 120 144
158 158 158 159 161 156 136 165 97 97 24 19 21 15 22 347 21 161 215 72 340 67 148 138 208 181 226 213 194 161 157 155 176 155 205 255 238 290 193 200 150 142 141 143
155 157 154 158 157 154 146 131 107 89 49 265 288 309 14 41 43 264 323 164 158 175 131 190 190 205 222 184 226 160 176 176 179 177 206 233 271 173 133 158 148 141 119 141
155 155 156 156 157 159 152 125 124 76 85 317 48 55 336 356 9 3 44 21 332 8 15 173 205 209 153 191 230 220 220 189 187 128 246 241 229 176 167 169 163 158 139 148
152 152 156 156 156 159 165 130 153 95 111 138 278 277 344 300 46 326 318 116 341 287 348 229 197 175 187 226 218 162 201 176 208 243 273 340 245 215 259 135 125 120 127 151
150 152 155 156 159 162 149 78 190 168 128 161 289 314 104 292 210 270 288 238 180 319 332 3 257 300 34 322 50 253 206 216 152 214 217 172 226 322 50 146 162 155 141 146
151 156 156 155 154 144 105 56 293 224 93 88 358 292 287 332 194 275 287 232 213 182 174 187 267 247 103 194 233 215 246 287 241 250 180 243 259 271 239 165 164 159 149 151
154 158 161 161 156 143 158 174 204 134 89 84 358 284 314 329 208 190 221 2 22 130 179 181 191 220 120 195 207 294 308 307 299 285 346 307 252 252 233 170 168 146 142 146
154 155 161 151 146 91 248 334 140 116 88 89 262 263 324 210 174 159 193 127 81 306 186 332 179 314 175 247 204 214 234 250 267 272 265 232 265 281 262 160 137 143 150 151
150 153 143 116 146 140 184 101 139 79 124 157 174 206 239 189 160 85 24 85 103 259 198 208 139 219 223 204 197 207 217 222 241 259 257 261 252 258 250 156 163 157 163 154
141 123 109 144 189 131 101 89 132 225 306 142 180 178 199 201 128 115 107 146 145 227 236 180 209 242 242 243 261 276 262 252 243 252 267 265 261 246 244 211 182 176 170 155
150 128 169 196 126 81 129 139 177 153 201 189 204 193 144 232 148 138 156 158 157 229 250 176 247 259 233 225 234 237 244 258 260 256 253 251 242 244 251 243 170 160 152 165
161 160 117 111 109 125 153 176 169 199 203 189 190 173 143 181 138 120 195 169 186 246 196 154 255 199 174 213 233 243 242 247 252 250 250 253 247 243 227 180 164 162 155 148
150 95 103 152 149 177 194 157 151 193 212 178 147 158 137 133 173 138 159 196 221 208 221 231 227 199 242 235 228 255 247 238 244 240 224 236 253 245 170 169 154 142 144 149
110 159 152 202 158 208 187 177 179 213 163 154 161 154 139 158 158 168 161 213 152 247 234 224 223 220 228 250 251 249 260 264 266 249 256 261 264 212 173 155 145 143 144 144
159 195 197 190 185 219 196 198 189 193 153 159 145 89 110 138 178 181 183 172 229 218 202 226 224 225 220 229 241 247 251 203 183 216 244 304 152 132 109 123 133 126 128 133
182 230 182 205 171 217 214 177 194 199 157 146 134 123 156 193 176 174 202 204 207 224 225 227 224 231 239 243 252 231 160 155 135 122 132 108 96 117 113 101 116 128 134 137
194 208 214 195 194 196 191 201 184 187 162 162 132 165 190 144 189 199 205 204 226 215 257 241 219 242 240 195 163 149 143 129 134 119 114 110 111 113 117 119 124 123 124 126